TimePST,TemperatureF,Dew PointF,Humidity,Sea Level PressureIn,VisibilityMPH,Wind Direction,Wind SpeedMPH,Gust SpeedMPH,PrecipitationIn,Events,Conditions,WindDirDegrees,DateUTC
12:53 AM,39.0,34.0,82,30.09,10.0,Calm,Calm,-,N/A,,Overcast,0,2013-02-23 08:53:00
1:53 AM,39.9,33.1,77,30.10,10.0,Calm,Calm,-,N/A,,Overcast,0,2013-02-23 09:53:00
2:53 AM,39.9,34.0,79,30.11,10.0,SW,10.4,-,N/A,,Overcast,230,2013-02-23 10:53:00
3:53 AM,39.9,34.0,79,30.11,10.0,SW,13.8,21.9,N/A,,Overcast,220,2013-02-23 11:53:00
4:53 AM,39.9,34.0,79,30.14,10.0,SSW,15.0,-,0.00,,Overcast,210,2013-02-23 12:53:00
5:53 AM,39.0,34.0,82,30.16,10.0,SSW,12.7,-,N/A,,Mostly Cloudy,210,2013-02-23 13:53:00
6:53 AM,39.9,35.1,83,30.20,10.0,Calm,Calm,-,0.00,Rain,Light Rain,0,2013-02-23 14:53:00
7:29 AM,39.2,35.6,87,30.21,10.0,Calm,Calm,-,0.00,,Overcast,0,2013-02-23 15:29:00
7:53 AM,39.9,35.1,83,30.22,10.0,SW,11.5,-,0.00,,Overcast,220,2013-02-23 15:53:00
8:53 AM,42.1,36.0,79,30.25,10.0,SW,12.7,-,0.00,,Overcast,230,2013-02-23 16:53:00
9:53 AM,43.0,37.0,80,30.28,10.0,SSW,12.7,-,N/A,,Overcast,210,2013-02-23 17:53:00
10:53 AM,44.1,37.0,76,30.29,10.0,SW,15.0,-,N/A,,Mostly Cloudy,220,2013-02-23 18:53:00
11:36 AM,44.6,35.6,71,30.30,10.0,WSW,12.7,-,N/A,,Overcast,250,2013-02-23 19:36:00
11:53 AM,45.0,37.9,76,30.31,10.0,West,6.9,20.7,0.00,Rain,Light Rain,270,2013-02-23 19:53:00
12:53 PM,46.9,35.1,63,30.30,10.0,WNW,5.8,-,0.00,,Overcast,290,2013-02-23 20:53:00
1:12 PM,44.6,33.8,66,30.30,8.0,NW,11.5,17.3,0.00,Rain,Light Rain,320,2013-02-23 21:12:00
1:20 PM,42.8,35.6,76,30.31,2.5,NW,12.7,24.2,0.03,Rain,Light Rain,310,2013-02-23 21:20:00
1:27 PM,41.0,33.8,76,30.31,3.0,West,5.8,24.2,0.05,Rain,Light Rain,260,2013-02-23 21:27:00
1:37 PM,42.8,37.4,81,30.31,3.0,Calm,Calm,-,0.05,,Haze,0,2013-02-23 21:37:00
1:53 PM,44.1,37.9,79,30.32,3.0,Variable,5.8,-,0.05,,Haze,0,2013-02-23 21:53:00
2:32 PM,42.8,33.8,70,30.32,5.0,WSW,6.9,18.4,0.01,Rain,Light Rain,240,2013-02-23 22:32:00
2:43 PM,44.6,37.4,76,30.32,10.0,SW,6.9,-,0.01,,Mostly Cloudy,230,2013-02-23 22:43:00
2:53 PM,45.0,37.9,76,30.32,10.0,SW,5.8,-,0.01,,Mostly Cloudy,220,2013-02-23 22:53:00
3:53 PM,48.0,37.0,66,30.34,10.0,WSW,8.1,-,N/A,,Mostly Cloudy,240,2013-02-23 23:53:00
4:53 PM,46.9,34.0,61,30.35,10.0,NW,3.5,-,0.00,,Overcast,310,2013-02-24 00:53:00
5:53 PM,46.0,33.1,61,30.37,10.0,West,3.5,-,N/A,,Mostly Cloudy,280,2013-02-24 01:53:00
6:53 PM,44.1,32.0,63,30.40,10.0,West,4.6,-,N/A,,Overcast,270,2013-02-24 02:53:00
7:53 PM,42.1,32.0,67,30.41,10.0,Calm,Calm,-,N/A,,Mostly Cloudy,0,2013-02-24 03:53:00
8:53 PM,41.0,35.1,79,30.43,10.0,Calm,Calm,-,N/A,,Overcast,0,2013-02-24 04:53:00
9:53 PM,41.0,35.1,79,30.43,10.0,Calm,Calm,-,N/A,,Overcast,0,2013-02-24 05:53:00
10:53 PM,39.0,35.1,86,30.44,10.0,Calm,Calm,-,N/A,,Mostly Cloudy,0,2013-02-24 06:53:00
11:53 PM,37.0,34.0,89,30.44,10.0,Calm,Calm,-,N/A,,Overcast,0,2013-02-24 07:53:00